{"data":{"norad_id":64113,"intl_designator":"2025-110T","name":"STARLINK-33839","alt_names":[],"object_type":"PAYLOAD","status":"ACTIVE","operator":null,"country":"US","launch_date":"2025-05-23","launch_site_code":"AFWTR","launch_vehicle":null,"mission":null,"orbit_class":"UNKNOWN","rcs_meters":null,"size_class":null,"mass_kg":null,"dimensions":null,"purposes":["comms"],"wikipedia_slug":null,"has_3d_model":false,"image_url":null,"decayed_at":null,"tle_current":{"epoch":"2026-09-20T12:34:37.034400Z","epoch_age_seconds":138342,"freshness":"FRESH","line1":"1 64113U 25110T   26263.52403975  .00025756  00000+0  83909-3 0  9994","line2":"2 64113  53.1572 200.2758 0001530  96.6587 263.4588 15.31692106 75736","mean_motion":15.31692106,"eccentricity":0.000153,"inclination_deg":53.1572,"raan_deg":200.2758,"arg_perigee_deg":96.6587,"mean_anomaly_deg":263.4588,"bstar":0.00083909,"rev_number":7573,"period_min":94.013672484123,"perigee_km":469.71564514932,"apogee_km":471.81140871056,"semimajor_km":6848.9005269299,"source":"CELESTRAK","updated_at":"2026-09-21T09:00:35.230046Z"}}}